Weather History for KHSV - December, 2012

Change the Weather History Date:

Friday, December 28, 2012

  Actual Average Record
Temperature  
Mean Temperature 37 °F 42 °F  
Max Temperature 44 °F 51 °F 74 °F (1907)
Min Temperature 30 °F 33 °F 5 °F (1925)
Degree Days  
Heating Degree Days 28 23  
Month to date heating degree days 390 585  
Since 1 July heating degree days 1028 1112  
Cooling Degree Days 0 0  
Month to date cooling degree days 1 0  
Year to date cooling degree days 2095 1949  
Moisture  
Dew Point 36 °F    
Average Humidity 90    
Maximum Humidity 100    
Minimum Humidity 79    
Precipitation  
Precipitation 0.35 in 0.17 in 4.08 in (1926)
Month to date precipitation 6.69 5.28  
Year to date precipitation 52.15 53.85  
Snow  
Snow 0.00 in - - ()
Month to date snowfall T  
Since 1 July snowfall T  
Snow Depth 0.00 in    
Sea Level Pressure  
Sea Level Pressure 29.92 in    
Wind  
Wind Speed 8 mph (SE)    
Max Wind Speed 23 mph    
Max Gust Speed 26 mph    
Visibility 8 miles    
Events Rain    
T = Trace of Precipitation, MM = Missing Value Source: NWS Daily Summary

Daily Weather History Graph

Daily Weather History Graph

Search for Another Location

Airport or City:

Trip Planner

Search our weather history database for the weather conditions in past years. The results will help you decide how hot, cold, wet, or windy it might be!

Date:

Astronomy

Dec. 28, 2012 Rise Set
Actual Time 6:53 AM CST 4:44 PM CST
Civil Twilight 6:25 AM CST 5:12 PM CST
Nautical Twilight 5:53 AM CST 5:44 PM CST
Astronomical Twilight 5:23 AM CST 6:14 PM CST
Moon 5:18 PM CST (12/28) 6:49 AM CST (12/28)
Length of Visible Light 10h 47m
Length of Day
9h 51m
Full, 100% of the Moon is Illuminated
Dec 28
Full
Jan 4
Last Quarter
Jan 11
New
Jan 18
First Quarter
Jan 26
Full

Hourly Weather History & Observations

Time (CST) Temp. Windchill Dew Point Humidity Pressure Visibility Wind Dir Wind Speed Gust Speed Precip Events Conditions
12:53 AM 30.0 °F 24.1 °F 28.0 °F 92% 30.08 in 7.0 mi ESE 5.8 mph - N/A   Overcast
1:53 AM 30.9 °F - 30.0 °F 96% 30.09 in 6.0 mi Calm Calm - N/A   Overcast
2:53 AM 33.1 °F 28.7 °F 30.0 °F 89% 30.09 in 9.0 mi East 4.6 mph - N/A   Overcast
3:53 AM 33.1 °F - 30.0 °F 89% 30.09 in 10.0 mi Calm Calm - N/A   Overcast
4:53 AM 34.0 °F 29.8 °F 30.9 °F 89% 30.07 in 10.0 mi East 4.6 mph - N/A   Overcast
5:53 AM 33.8 °F 29.6 °F 30.2 °F 87% 30.07 in 10.0 mi ESE 4.6 mph - N/A   Overcast
6:53 AM 35.1 °F - 30.9 °F 85% 30.11 in 10.0 mi Calm Calm - N/A   Overcast
7:53 AM 35.6 °F - 32.0 °F 87% 30.10 in 10.0 mi Calm Calm - N/A   Overcast
8:53 AM 37.0 °F 33.3 °F 32.0 °F 82% 30.11 in 10.0 mi East 4.6 mph - 0.00 in   Overcast
9:53 AM 37.4 °F 34.9 °F 33.8 °F 87% 30.11 in 10.0 mi NNE 3.5 mph - N/A Rain Light Rain
10:53 AM 39.0 °F 35.7 °F 33.1 °F 79% 30.09 in 10.0 mi East 4.6 mph - 0.00 in   Overcast
11:53 AM 39.9 °F 31.8 °F 34.0 °F 79% 30.01 in 10.0 mi ESE 15.0 mph - 0.00 in   Overcast
12:53 PM 39.9 °F 33.4 °F 34.0 °F 79% 29.96 in 10.0 mi SE 10.4 mph - 0.00 in Rain Light Rain
1:53 PM 39.9 °F 32.5 °F 36.0 °F 86% 29.92 in 7.0 mi ESE 12.7 mph - 0.03 in Rain Light Rain
2:53 PM 41.0 °F 35.2 °F 36.0 °F 82% 29.91 in 8.0 mi ESE 9.2 mph - 0.01 in Rain Light Rain
3:53 PM 41.0 °F 31.9 °F 37.9 °F 89% 29.86 in 4.0 mi ESE 19.6 mph - 0.05 in Rain Rain
4:53 PM 41.0 °F 35.2 °F 37.0 °F 86% 29.86 in 10.0 mi ESE 9.2 mph - 0.01 in   Overcast
5:40 PM 42.8 °F 37.0 °F 37.4 °F 81% 29.81 in 10.0 mi ESE 10.4 mph - 0.00 in Rain Light Rain
5:53 PM 42.1 °F 36.1 °F 37.9 °F 85% 29.82 in 10.0 mi ESE 10.4 mph - 0.00 in Rain Light Rain
6:53 PM 43.0 °F 38.2 °F 39.0 °F 86% 29.80 in 7.0 mi ESE 8.1 mph - 0.02 in Rain Rain
7:17 PM 42.8 °F 36.2 °F 39.2 °F 87% 29.79 in 8.0 mi SSE 12.7 mph - 0.01 in Rain Light Rain
7:53 PM 43.0 °F 35.1 °F 39.9 °F 89% 29.76 in 5.0 mi SE 17.3 mph - 0.09 in Rain Rain
8:08 PM 42.8 °F 36.6 °F 41.0 °F 93% 29.75 in 10.0 mi SE 11.5 mph - 0.01 in Rain Light Rain
8:34 PM 44.6 °F 38.8 °F 39.2 °F 81% 29.77 in 10.0 mi South 11.5 mph - 0.01 in   Overcast
8:53 PM 44.1 °F 35.7 °F 39.9 °F 85% 29.78 in 10.0 mi SSE 20.7 mph 25.3 mph 0.01 in   Overcast
9:43 PM 44.6 °F 38.1 °F 39.2 °F 81% 29.77 in 10.0 mi SSE 13.8 mph 21.9 mph N/A   Overcast
9:53 PM 44.1 °F 37.1 °F 39.9 °F 85% 29.77 in 10.0 mi SSE 15.0 mph - N/A   Overcast
10:31 PM 44.6 °F 38.4 °F 39.2 °F 81% 29.83 in 10.0 mi West 12.7 mph 24.2 mph 0.00 in Rain Light Rain
10:40 PM 42.8 °F 37.5 °F 41.0 °F 93% 29.83 in 2.0 mi West 9.2 mph - 0.04 in Rain Heavy Rain
10:53 PM 42.8 °F 38.6 °F 41.0 °F 93% 29.83 in 4.0 mi West 6.9 mph - N/A Rain Light Rain
11:20 PM 42.8 °F 39.3 °F 42.8 °F 100% 29.83 in 4.0 mi West 5.8 mph - 0.02 in Rain Light Rain
11:51 PM 42.8 °F 39.3 °F 42.8 °F 100% 29.84 in 2.5 mi WSW 5.8 mph - 0.04 in Rain Light Rain
11:53 PM 43.0 °F 38.8 °F 42.1 °F 97% 29.84 in 2.5 mi WSW 6.9 mph - 0.05 in Rain Light Rain